Location: Beddau
(51.5575°N, 3.3561°W)
Time: 16:49:18
(UTC+00:00)

Cosmos 1937 Rocket - Pass Details

Date: 03 March 2021
Orbit: 747 x 780 km, 74.0° (Epoch: 13 April)

Event Time Altitude Azimuth Distance (km) Brightness Sun altitude
Rises 21:00:37 0° 336° (NNW) 3,224 7.5 -28.4°
Reaches altitude 10° 21:03:02 10° 340° (NNW) 2,291 6.5 -28.7°
Enters shadow 21:06:42 43° 3° (N) 1,053 4.3 -29.2°
